G4KVI Weather Reports


time (UTC)temp
F
wind
direction
speed
knots
gust
knots
rain 1hr
in
rain 24hr
in
rain mn
in
humidity
%
barometer
mb
20260508033503 48 97 0.0 0.9 0.00 0.00 0.00 84 1017.0
20260508033003 48 98 0.9 0.9 0.00 0.00 0.00 84 1017.2
20260508032503 48 99 0.9 0.9 0.00 0.00 0.00 84 1017.1
20260508032003 48 99 0.9 0.9 0.00 0.00 0.00 84 1017.1
20260508031503 48 99 0.9 0.9 0.00 0.00 0.00 83 1017.2
20260508030503 48 99 0.9 1.7 0.00 0.00 0.00 83 1017.2
20260508030004 48 99 0.9 1.7 0.00 0.00 0.00 83 1017.3
20260508025503 48 98 0.9 1.7 0.00 0.00 0.00 83 1017.2
20260508025003 49 100 0.9 1.7 0.00 0.00 0.00 82 1017.1
20260508024503 49 101 0.9 1.7 0.00 0.00 0.00 82 1017.1
20260508024003 48 100 0.9 1.7 0.00 0.00 0.00 82 1017.3
20260508023503 48 100 0.9 1.7 0.00 0.00 0.00 82 1017.1
20260508023003 49 99 0.9 0.9 0.00 0.00 0.00 81 1017.2
20260508022503 49 99 0.9 1.7 0.00 0.00 0.00 81 1017.4
20260508022003 49 98 0.9 1.7 0.00 0.00 0.00 80 1017.2
20260508021503 49 100 0.9 2.6 0.00 0.00 0.00 80 1017.3
20260508021003 49 104 0.9 2.6 0.00 0.00 0.00 80 1017.1
20260508020503 49 109 0.9 1.7 0.00 0.00 0.00 79 1017.2
20260508020003 49 109 0.0 0.9 0.00 0.00 0.00 78 1017.3
20260508015503 49 109 0.9 1.7 0.00 0.00 0.00 78 1017.2
20260508015003 49 108 0.9 1.7 0.00 0.00 0.00 77 1017.2
20260508014504 49 109 0.9 1.7 0.00 0.00 0.00 76 1017.2
20260508014003 49 111 0.9 1.7 0.00 0.00 0.00 76 1017.2
20260508013503 49 113 0.9 0.9 0.00 0.00 0.00 75 1017.2
20260508013003 49 113 0.9 0.9 0.00 0.00 0.00 75 1017.4
20260508012503 49 113 0.0 0.9 0.00 0.00 0.00 74 1017.4
20260508012003 49 113 0.0 0.9 0.00 0.00 0.00 74 1017.2
20260508011503 49 0 0.0 0.0 0.00 0.00 0.00 73 1017.4
20260508011003 50 109 0.0 0.9 0.00 0.00 0.00 73 1017.4
20260508010503 50 107 0.9 1.7 0.00 0.00 0.00 73 1017.2
20260508010003 50 106 0.9 1.7 0.00 0.00 0.00 72 1017.4
20260508005503 50 107 0.9 1.7 0.00 0.00 0.00 72 1017.2
20260508005003 50 107 0.9 0.9 0.00 0.00 0.00 72 1017.3
20260508004503 50 107 0.9 1.7 0.00 0.00 0.00 71 1017.3
20260508004003 50 108 0.9 1.7 0.00 0.00 0.00 71 1017.5
20260508003503 50 124 0.9 1.7 0.00 0.00 0.00 71 1017.5
20260508003003 50 141 0.9 2.6 0.00 0.00 0.00 70 1017.2
20260508002503 50 132 0.9 2.6 0.00 0.00 0.00 70 1017.2
20260508002003 50 109 0.9 0.9 0.00 0.00 0.00 70 1017.6
20260508001503 50 100 0.9 0.9 0.00 0.00 0.00 69 1017.3
20260508001003 50 99 0.9 1.7 0.00 0.00 0.00 69 1017.4
20260508000503 51 99 0.9 1.7 0.00 0.00 0.00 69 1017.4
20260508000003 51 103 0.9 1.7 0.00 0.00 0.00 68 1017.7
20260507235503 51 108 0.9 2.6 0.00 0.00 0.00 68 1017.3
20260507235003 51 122 1.7 2.6 0.00 0.00 0.00 67 1017.6
20260507234503 51 129 1.7 3.5 0.00 0.00 0.00 67 1017.5
20260507234003 51 121 1.7 3.5 0.00 0.00 0.00 67 1017.5
20260507233503 51 124 0.9 5.2 0.00 0.00 0.00 67 1017.4
20260507233003 51 132 0.9 5.2 0.00 0.00 0.00 67 1017.4
20260507232503 51 126 0.9 2.6 0.00 0.00 0.00 67 1017.5
20260507232003 51 117 1.7 2.6 0.00 0.00 0.00 67 1017.5
20260507231503 51 110 0.9 2.6 0.00 0.00 0.00 68 1017.4
20260507231003 51 115 0.9 0.9 0.00 0.00 0.00 69 1017.4
20260507230503 51 119 0.9 0.9 0.00 0.00 0.00 69 1017.6
20260507230004 51 120 0.0 0.9 0.00 0.00 0.00 71 1017.4
20260507225503 51 121 0.0 0.9 0.00 0.00 0.00 72 1017.5
20260507225003 51 121 0.9 0.9 0.00 0.00 0.00 73 1017.7
20260507224504 51 121 0.0 0.9 0.00 0.00 0.00 73 1017.7
20260507224003 51 121 0.0 0.9 0.00 0.00 0.00 72 1017.6
20260507223503 51 121 0.0 0.9 0.00 0.00 0.00 72 1017.7
20260507223003 51 123 0.9 0.9 0.00 0.00 0.00 72 1017.6
20260507222503 51 124 0.9 0.9 0.00 0.00 0.00 71 1017.6
20260507222003 51 124 0.9 0.9 0.00 0.00 0.00 69 1017.5
20260507221503 51 124 0.9 0.9 0.00 0.00 0.00 69 1017.6
20260507221003 51 125 0.0 0.9 0.00 0.00 0.00 69 1017.7
20260507220503 50 125 0.0 0.9 0.00 0.00 0.00 70 1017.7
20260507220003 51 125 0.0 0.9 0.00 0.00 0.00 71 1017.9
20260507215503 51 125 0.0 0.9 0.00 0.00 0.00 71 1017.8
20260507215003 50 125 0.0 0.9 0.00 0.00 0.00 71 1017.6
20260507214503 51 125 0.0 0.9 0.00 0.00 0.00 71 1017.7
20260507214003 51 125 0.0 0.9 0.00 0.00 0.00 71 1017.7
20260507213503 51 0 0.0 0.0 0.00 0.00 0.00 71 1017.8
20260507213003 51 0 0.0 0.0 0.00 0.00 0.00 70 1017.6
20260507212503 51 0 0.0 0.0 0.00 0.00 0.00 70 1017.7
20260507212003 51 0 0.0 0.0 0.00 0.00 0.00 70 1017.7
20260507211503 51 0 0.0 0.0 0.00 0.00 0.00 70 1017.8
20260507211003 51 0 0.0 0.0 0.00 0.00 0.00 71 1017.6
20260507210503 52 0 0.0 0.0 0.00 0.00 0.00 70 1017.4
20260507210003 52 0 0.0 0.0 0.00 0.00 0.00 69 1017.5
20260507205503 52 0 0.0 0.0 0.00 0.00 0.00 68 1017.4
20260507205003 52 0 0.0 0.0 0.00 0.00 0.00 68 1017.2
20260507204503 52 0 0.0 0.0 0.00 0.00 0.00 67 1017.4
20260507204003 52 0 0.0 0.0 0.00 0.00 0.00 68 1017.4
20260507203503 52 0 0.0 0.0 0.00 0.00 0.00 68 1017.3
20260507203003 53 0 0.0 0.0 0.00 0.00 0.00 68 1017.2
20260507202503 52 0 0.0 0.0 0.00 0.00 0.00 66 1017.2
20260507202003 53 0 0.0 0.0 0.00 0.00 0.00 66 1017.3
20260507201503 53 0 0.0 0.0 0.00 0.00 0.00 66 1016.9
20260507201003 53 0 0.0 0.0 0.00 0.00 0.00 65 1017.3
20260507200503 53 0 0.0 0.0 0.00 0.00 0.00 64 1017.2
20260507200003 53 0 0.0 0.0 0.00 0.00 0.00 64 1017.0
20260507195503 53 0 0.0 0.0 0.00 0.00 0.00 63 1017.0
20260507195003 53 0 0.0 0.0 0.00 0.00 0.00 63 1017.0
20260507194503 54 0 0.0 0.0 0.00 0.00 0.00 62 1016.8
20260507194003 54 0 0.0 0.0 0.00 0.00 0.00 62 1016.9
20260507193503 54 0 0.0 0.0 0.00 0.00 0.00 61 1017.0
20260507193003 54 0 0.0 0.0 0.00 0.00 0.00 61 1016.8
20260507192503 54 125 0.0 0.9 0.00 0.00 0.00 60 1016.9
20260507192003 55 125 0.0 0.9 0.00 0.00 0.00 60 1016.8
20260507191503 55 0 0.0 0.0 0.00 0.00 0.00 60 1016.9
20260507191003 55 0 0.0 0.0 0.00 0.00 0.00 59 1016.8
20260507190504 56 0 0.0 0.0 0.00 0.00 0.00 58 1016.7
20260507190005 56 0 0.0 0.0 0.00 0.00 0.00 58 1016.6
20260507185504 56 142 0.0 0.9 0.00 0.00 0.00 57 1016.7
20260507185004 57 142 0.0 0.9 0.00 0.00 0.00 57 1016.6
20260507184504 57 142 0.0 0.9 0.00 0.00 0.00 56 1016.6
20260507184004 57 142 0.0 0.9 0.00 0.00 0.00 55 1016.9
20260507183504 57 0 0.0 0.0 0.00 0.00 0.00 55 1016.5
20260507183004 58 141 0.0 0.9 0.00 0.00 0.00 55 1016.6
20260507182504 58 141 0.0 0.9 0.00 0.00 0.00 54 1016.5
20260507182004 58 142 0.0 0.9 0.00 0.00 0.00 54 1016.6
20260507181504 58 140 0.0 1.7 0.00 0.00 0.00 54 1016.6
20260507181004 58 134 0.0 1.7 0.00 0.00 0.00 53 1016.4
20260507180504 58 129 0.0 0.9 0.00 0.00 0.00 53 1016.6
20260507180004 58 0 0.0 0.0 0.00 0.00 0.00 53 1016.6
20260507175504 58 127 0.0 1.7 0.00 0.00 0.00 54 1016.6
20260507175004 58 120 0.0 1.7 0.00 0.00 0.00 53 1016.6
20260507174504 57 124 0.9 1.7 0.00 0.00 0.00 55 1016.6
20260507174004 57 116 0.9 1.7 0.00 0.00 0.00 59 1016.5
20260507173504 57 97 0.9 1.7 0.00 0.00 0.00 61 1016.5
20260507173004 57 92 0.9 2.6 0.00 0.00 0.00 61 1016.6
20260507172504 57 103 1.7 3.5 0.00 0.00 0.00 62 1016.6
20260507172004 58 117 0.9 3.5 0.00 0.00 0.00 59 1016.6
20260507171504 58 144 0.9 2.6 0.00 0.00 0.00 55 1016.6
20260507171004 58 136 0.0 1.7 0.00 0.00 0.00 55 1016.6
20260507170504 58 141 0.9 1.7 0.00 0.00 0.00 55 1016.6
20260507170004 58 137 0.9 1.7 0.00 0.00 0.00 55 1016.7
20260507165504 58 124 0.0 1.7 0.00 0.00 0.00 54 1016.7
20260507165004 58 96 0.0 0.9 0.00 0.00 0.00 54 1016.6
20260507164504 58 92 0.0 2.6 0.00 0.00 0.00 54 1016.7
20260507164004 58 117 0.0 2.6 0.00 0.00 0.00 54 1016.6
20260507163504 58 159 0.9 1.7 0.00 0.00 0.00 55 1016.7
20260507163005 57 160 0.9 1.7 0.00 0.00 0.00 55 1016.6
20260507162504 57 157 0.0 1.7 0.00 0.00 0.00 56 1016.5
20260507162004 57 145 0.0 0.9 0.00 0.00 0.00 58 1016.6
20260507161504 57 145 0.0 1.7 0.00 0.00 0.00 59 1016.5
20260507161004 57 143 0.9 2.6 0.00 0.00 0.00 60 1016.7
20260507160504 57 146 0.9 2.6 0.00 0.00 0.00 60 1016.6
20260507160004 57 157 0.9 1.7 0.00 0.00 0.00 60 1016.8
20260507155504 57 162 0.9 1.7 0.00 0.00 0.00 60 1016.8
20260507155004 57 137 1.7 3.5 0.00 0.00 0.00 59 1016.6
20260507154504 57 127 1.7 3.5 0.00 0.00 0.00 59 1016.7
20260507154004 57 124 1.7 3.5 0.00 0.00 0.00 58 1016.8
20260507153504 57 123 1.7 3.5 0.00 0.00 0.00 58 1016.6
20260507153004 57 127 0.9 2.6 0.00 0.00 0.00 58 1016.7
20260507152504 57 127 1.7 3.5 0.00 0.00 0.00 57 1016.8
20260507152004 57 121 1.7 3.5 0.00 0.00 0.00 58 1016.7
20260507151504 57 130 1.7 3.5 0.00 0.00 0.00 58 1016.8
20260507151004 57 137 1.7 5.2 0.00 0.00 0.00 58 1016.8
20260507150504 57 141 2.6 5.2 0.00 0.00 0.00 58 1016.9
20260507150004 57 152 2.6 5.2 0.00 0.00 0.00 58 1016.9
20260507145504 57 144 1.7 5.2 0.00 0.00 0.00 57 1016.6
20260507145004 58 139 2.6 7.0 0.00 0.00 0.00 57 1016.7
20260507144504 57 144 2.6 7.0 0.00 0.00 0.00 58 1016.7
20260507144004 58 150 2.6 7.0 0.00 0.00 0.00 57 1016.7
20260507143504 58 157 3.5 7.8 0.00 0.00 0.00 57 1016.8
20260507143004 58 152 2.6 7.8 0.00 0.00 0.00 56 1016.8
20260507142504 58 153 2.6 7.0 0.00 0.00 0.00 57 1016.9
20260507142004 58 144 2.6 7.0 0.00 0.00 0.00 57 1017.0
20260507141504 58 136 2.6 7.0 0.00 0.00 0.00 56 1017.0
20260507141004 58 156 3.5 7.0 0.00 0.00 0.00 58 1016.7
20260507140504 58 155 3.5 7.8 0.00 0.00 0.00 58 1016.9
20260507140004 59 145 3.5 7.8 0.00 0.00 0.00 57 1017.0
20260507135504 58 145 3.5 8.7 0.00 0.00 0.00 58 1017.0
20260507135004 57 149 3.5 8.7 0.00 0.00 0.00 59 1017.1
20260507134504 57 162 3.5 8.7 0.00 0.00 0.00 59 1017.2
20260507134004 57 164 3.5 8.7 0.00 0.00 0.00 58 1017.1
20260507133504 58 148 3.5 8.7 0.00 0.00 0.00 59 1017.2
20260507133004 58 147 3.5 8.7 0.00 0.00 0.00 59 1017.1
20260507132504 58 155 3.5 8.7 0.00 0.00 0.00 58 1017.0
20260507132004 58 159 3.5 7.8 0.00 0.00 0.00 57 1017.2
20260507131504 59 161 3.5 8.7 0.00 0.00 0.00 57 1017.3
20260507131004 59 162 2.6 8.7 0.00 0.00 0.00 57 1017.0
20260507130504 58 172 2.6 7.0 0.00 0.00 0.00 57 1017.0
20260507130004 57 180 2.6 7.0 0.00 0.00 0.00 58 1017.3
20260507125504 58 207 1.7 7.0 0.00 0.00 0.00 58 1017.1
20260507125004 57 202 0.9 7.0 0.00 0.00 0.00 58 1017.1
20260507124504 57 149 0.9 2.6 0.00 0.00 0.00 58 1017.1
20260507124004 57 154 0.9 2.6 0.00 0.00 0.00 58 1017.2
20260507123504 57 152 1.7 2.6 0.00 0.00 0.00 57 1017.2
20260507123004 58 150 0.9 5.2 0.00 0.00 0.00 56 1017.2
20260507122504 58 156 1.7 6.1 0.00 0.00 0.00 57 1017.2
20260507122004 58 160 2.6 6.1 0.00 0.00 0.00 55 1017.3
20260507121504 58 158 2.6 7.0 0.00 0.00 0.00 55 1017.2
20260507121004 58 153 2.6 7.0 0.00 0.00 0.00 56 1017.3
20260507120504 58 158 2.6 7.0 0.00 0.00 0.00 55 1017.3
20260507120004 59 177 0.9 6.1 0.00 0.00 0.00 54 1017.3
20260507115504 59 187 0.9 3.5 0.00 0.00 0.00 52 1017.6
20260507115004 59 179 1.7 6.1 0.00 0.00 0.00 52 1017.4
20260507114504 59 178 1.7 6.1 0.00 0.00 0.00 52 1017.5
20260507114004 59 162 1.7 6.1 0.00 0.00 0.00 53 1017.7
20260507113504 59 160 1.7 6.1 0.00 0.00 0.00 52 1017.4
20260507113004 59 171 1.7 6.1 0.00 0.00 0.00 52 1017.4
20260507112504 59 175 1.7 6.1 0.00 0.00 0.00 50 1017.4
20260507112004 60 162 0.9 5.2 0.00 0.00 0.00 52 1017.2
20260507111504 60 155 1.7 6.1 0.00 0.00 0.00 52 1017.3
20260507111004 59 166 1.7 7.8 0.00 0.00 0.00 49 1017.3
20260507110504 59 166 2.6 7.8 0.00 0.00 0.00 51 1017.5
20260507110004 58 153 2.6 7.0 0.00 0.00 0.00 52 1017.5
20260507105504 58 154 2.6 6.1 0.00 0.00 0.00 50 1017.5
20260507105004 59 159 1.7 6.1 0.00 0.00 0.00 48 1017.4
20260507104504 59 163 2.6 6.1 0.00 0.00 0.00 50 1017.6
20260507104004 61 170 2.6 6.1 0.00 0.00 0.00 47 1017.6
20260507103504 61 156 2.6 7.0 0.00 0.00 0.00 48 1017.6
20260507103004 60 147 3.5 7.0 0.00 0.00 0.00 51 1017.5
20260507102504 60 147 4.3 7.8 0.00 0.00 0.00 49 1017.5
20260507102004 59 131 4.3 7.8 0.00 0.00 0.00 52 1017.6
20260507101504 59 134 4.3 7.8 0.00 0.00 0.00 54 1017.5
20260507101004 59 146 3.5 7.0 0.00 0.00 0.00 56 1017.8
20260507100504 59 144 2.6 7.0 0.00 0.00 0.00 57 1017.8
20260507100004 59 159 2.6 8.7 0.00 0.00 0.00 55 1017.7
20260507095504 59 151 3.5 8.7 0.00 0.00 0.00 57 1017.6
20260507095004 57 134 3.5 7.8 0.00 0.00 0.00 60 1017.8
20260507094504 56 133 3.5 7.8 0.00 0.00 0.00 59 1017.7
20260507094004 57 147 3.5 7.0 0.00 0.00 0.00 60 1017.5
20260507093504 56 155 3.5 7.0 0.00 0.00 0.00 62 1017.5
20260507093004 57 158 2.6 6.1 0.00 0.00 0.00 60 1017.6
20260507092504 56 158 2.6 7.8 0.00 0.00 0.00 62 1017.4
20260507092004 56 141 2.6 7.8 0.00 0.00 0.00 62 1017.5
20260507091504 55 127 2.6 6.1 0.00 0.00 0.00 67 1017.7
20260507091004 54 113 2.6 6.1 0.00 0.00 0.00 68 1017.9
20260507090504 54 105 2.6 6.1 0.00 0.00 0.00 72 1017.7
20260507090005 54 106 2.6 7.0 0.00 0.00 0.00 72 1017.7
20260507085504 53 104 3.5 7.0 0.00 0.00 0.00 73 1018.0
20260507085004 53 107 2.6 5.2 0.00 0.00 0.00 73 1017.7
20260507084504 53 104 3.5 6.1 0.00 0.00 0.00 74 1017.8
20260507084004 52 106 2.6 6.1 0.00 0.00 0.00 74 1017.8
20260507083504 52 113 2.6 5.2 0.00 0.00 0.00 75 1017.8
20260507083004 52 125 2.6 5.2 0.00 0.00 0.00 75 1018.0
20260507082504 52 129 2.6 6.1 0.00 0.00 0.00 75 1017.9
20260507082004 51 116 2.6 6.1 0.00 0.00 0.00 75 1017.9
20260507081503 51 108 2.6 5.2 0.00 0.00 0.00 77 1017.6
20260507081003 51 105 2.6 5.2 0.00 0.00 0.00 76 1017.8
20260507080503 50 111 1.7 5.2 0.00 0.00 0.00 77 1017.9
20260507080004 50 117 2.6 6.1 0.00 0.00 0.00 78 1018.0
20260507075504 49 123 2.6 6.1 0.00 0.00 0.00 78 1017.8
20260507075004 49 125 1.7 5.2 0.00 0.00 0.00 79 1017.9
20260507074504 49 121 1.7 5.2 0.00 0.00 0.00 79 1017.9
20260507074004 49 115 1.7 5.2 0.00 0.00 0.00 79 1017.9
20260507073503 48 121 2.6 6.1 0.00 0.00 0.00 79 1017.7
20260507073004 48 125 2.6 6.1 0.00 0.00 0.00 80 1017.7
20260507072503 47 124 1.7 5.2 0.00 0.00 0.00 80 1017.7
20260507072004 47 117 1.7 3.5 0.00 0.00 0.00 81 1017.7
20260507071504 47 124 0.9 2.6 0.00 0.00 0.00 82 1017.7
20260507071003 47 133 0.9 1.7 0.00 0.00 0.00 83 1017.5
20260507070504 46 145 1.7 2.6 0.00 0.00 0.00 83 1017.6
20260507070007 46 150 1.7 2.6 0.00 0.00 0.00 83 1017.7
20260507065503 46 121 0.9 2.6 0.00 0.00 0.00 83 1017.7
20260507065004 46 101 1.7 3.5 0.00 0.00 0.00 83 1017.7
20260507064504 46 102 1.7 3.5 0.00 0.00 0.00 84 1017.6
20260507064004 45 117 1.7 5.2 0.00 0.00 0.00 84 1017.5
20260507063503 45 108 2.6 6.1 0.00 0.00 0.00 84 1017.6
20260507063004 45 101 1.7 6.1 0.00 0.00 0.00 84 1017.5
20260507062503 45 108 1.7 2.6 0.00 0.00 0.00 85 1017.3
20260507062003 45 109 0.9 2.6 0.00 0.00 0.00 85 1017.6
20260507061503 45 94 0.9 1.7 0.00 0.00 0.00 85 1017.5
20260507061004 45 97 0.9 1.7 0.00 0.00 0.00 85 1017.2
20260507060503 45 109 0.9 2.6 0.00 0.00 0.00 85 1017.6
20260507060004 44 115 1.7 2.6 0.00 0.00 0.00 85 1017.2
20260507055503 44 125 1.7 2.6 0.00 0.00 0.00 85 1017.3
20260507055004 45 139 0.9 2.6 0.00 0.00 0.00 85 1017.4
20260507054504 44 120 1.7 5.2 0.00 0.00 0.00 85 1017.5
20260507054003 44 110 1.7 5.2 0.00 0.00 0.00 85 1017.2
20260507053503 44 107 1.7 5.2 0.00 0.00 0.00 85 1017.2
20260507053004 44 105 0.9 1.7 0.00 0.00 0.00 84 1017.2
20260507052503 45 101 0.9 2.6 0.00 0.00 0.00 84 1017.3
20260507052003 44 105 1.7 2.6 0.00 0.00 0.00 85 1017.1
20260507051503 44 115 1.7 2.6 0.00 0.00 0.00 85 1017.3
20260507051003 44 111 1.7 2.6 0.00 0.00 0.00 85 1017.4
20260507050503 44 105 1.7 2.6 0.00 0.00 0.00 85 1017.6
20260507050003 44 103 1.7 2.6 0.00 0.00 0.00 84 1017.1
20260507045503 44 106 1.7 3.5 0.00 0.00 0.00 84 1017.1
20260507045003 44 108 1.7 3.5 0.00 0.00 0.00 84 1017.0
20260507044503 44 107 1.7 2.6 0.00 0.00 0.00 84 1017.2
20260507044003 44 106 1.7 3.5 0.00 0.00 0.00 84 1017.1
20260507043503 44 105 1.7 3.5 0.00 0.00 0.00 84 1017.0
20260507043003 44 111 1.7 3.5 0.00 0.00 0.00 84 1017.0
20260507042503 44 117 0.9 2.6 0.00 0.00 0.00 84 1016.9
20260507042003 44 124 0.9 2.6 0.00 0.00 0.00 84 1017.1
20260507041503 44 123 1.7 2.6 0.00 0.00 0.00 84 1016.9
20260507041003 44 122 0.9 2.6 0.00 0.00 0.00 84 1016.9
20260507040503 44 122 0.9 2.6 0.00 0.00 0.00 84 1017.3
20260507040004 44 103 0.9 2.6 0.00 0.00 0.00 84 1017.1
20260507035504 44 101 1.7 2.6 0.00 0.00 0.00 84 1017.4
20260507035003 44 103 1.7 3.5 0.00 0.00 0.00 83 1017.3
20260507034503 44 105 1.7 3.5 0.00 0.00 0.00 83 1017.2
20260507034003 44 105 1.7 3.5 0.00 0.00 0.00 83 1017.1